Weather History for Nebraska City, NE

Change the Weather History Date:

Thursday, December 6, 2012

  Actual Average (KSDA) Record (KSDA)
Temperature  
Mean Temperature 46 °F -  
Max Temperature 50 °F 38 °F 63 °F (1989)
Min Temperature 42 °F 21 °F -9 °F (1950)
Degree Days  
Heating Degree Days 19    
Moisture  
Dew Point 31 °F    
Average Humidity 57    
Maximum Humidity 67    
Minimum Humidity 46    
Precipitation  
Precipitation 0.00 in - - ()
Sea Level Pressure  
Sea Level Pressure 29.92 in    
Wind  
Wind Speed 9 mph (NE)    
Max Wind Speed 22 mph    
Max Gust Speed 23 mph    
Visibility 10 miles    
Events Rain    
Averages and records for this station are not official NWS values.
T = Trace of Precipitation, MM = Missing Value Source: NWS Daily Summary

Daily Weather History Graph

Daily Weather History Graph

Search for Another Location

Airport:

Trip Planner

Search our weather history database for the weather conditions in past years. The results will help you decide how hot, cold, wet, or windy it might be!

Date:

Astronomy

Dec. 06, 2012 Rise Set
Actual Time 7:33 AM CST 4:56 PM CST
Civil Twilight 7:02 AM CST 5:26 PM CST
Nautical Twilight 6:28 AM CST 6:01 PM CST
Astronomical Twilight 5:55 AM CST 6:34 PM CST
Moon No Moon Rise 12:24 PM CST (12/6)
Length of Visible Light 10h 24m
Length of Day
9h 23m
Waning Gibbous, 49% of the Moon is Illuminated
Dec 6
Waning Gibbous
Dec 13
New
Dec 19
First Quarter
Dec 28
Full
Jan 4
Last Quarter

Hourly Weather History & Observations

Time (CST) Temp. Windchill Dew Point Humidity Pressure Visibility Wind Dir Wind Speed Gust Speed Precip Events Conditions
12:15 AM 45.7 °F 41.0 °F 29.3 °F 53% 29.95 in 10.0 mi SSW 9.2 mph - N/A   Scattered Clouds
12:35 AM 46.0 °F 41.0 °F 29.1 °F 52% 29.95 in 10.0 mi SSW 10.4 mph - N/A   Clear
12:55 AM 45.9 °F 40.0 °F 29.3 °F 52% 29.94 in 10.0 mi SSW 12.7 mph - N/A   Clear
1:15 AM 45.0 °F 38.9 °F 29.3 °F 54% 29.93 in 10.0 mi South 12.7 mph - N/A   Clear
1:35 AM 44.6 °F 38.4 °F 29.3 °F 55% 29.92 in 10.0 mi South 12.7 mph - N/A   Clear
1:55 AM 44.6 °F 38.4 °F 29.3 °F 55% 29.91 in 10.0 mi South 12.7 mph - N/A   Clear
2:15 AM 44.6 °F 38.1 °F 29.3 °F 55% 29.90 in 10.0 mi South 13.8 mph - N/A   Clear
2:35 AM 44.8 °F 38.0 °F 29.3 °F 55% 29.89 in 10.0 mi South 15.0 mph - N/A   Clear
2:55 AM 45.0 °F 37.1 °F 29.3 °F 54% 29.88 in 10.0 mi South 19.6 mph - N/A   Clear
3:15 AM 45.1 °F 37.9 °F 29.3 °F 54% 29.89 in 10.0 mi South 17.3 mph - N/A   Clear
3:35 AM 45.1 °F 39.5 °F 29.3 °F 54% 29.89 in 10.0 mi South 11.5 mph - N/A   Clear
3:55 AM 44.8 °F 39.0 °F 29.3 °F 55% 29.88 in 10.0 mi South 11.5 mph - N/A   Clear
4:15 AM 44.6 °F 38.4 °F 29.5 °F 55% 29.88 in 10.0 mi South 12.7 mph - N/A   Clear
4:35 AM 44.6 °F 38.1 °F 29.7 °F 56% 29.87 in 10.0 mi South 13.8 mph - N/A   Clear
4:55 AM 44.8 °F 39.9 °F 30.0 °F 56% 29.87 in 10.0 mi South 9.2 mph - N/A   Clear
5:15 AM 44.8 °F 39.0 °F 30.2 °F 57% 29.87 in 10.0 mi South 11.5 mph - N/A   Clear
5:35 AM 43.9 °F 38.8 °F 30.4 °F 59% 29.87 in 10.0 mi SSW 9.2 mph 16.1 mph N/A   Clear
5:55 AM 44.2 °F 41.0 °F 30.9 °F 60% 29.88 in 10.0 mi SSW 5.8 mph - N/A   Clear
6:15 AM 44.1 °F 39.5 °F 31.1 °F 60% 29.89 in 10.0 mi SSW 8.1 mph - N/A   Scattered Clouds
6:35 AM 44.2 °F 40.3 °F 31.1 °F 60% 29.89 in 10.0 mi SSW 6.9 mph - N/A   Scattered Clouds
6:55 AM 43.7 °F - 31.1 °F 61% 29.89 in 10.0 mi Calm Calm - N/A   Clear
7:15 AM 43.7 °F - 31.5 °F 62% 29.90 in 10.0 mi Calm Calm - N/A   Scattered Clouds
7:35 AM 43.7 °F - 31.5 °F 62% 29.90 in 10.0 mi Calm Calm - N/A   Mostly Cloudy
7:55 AM 43.3 °F - 31.8 °F 64% 29.90 in 10.0 mi Calm Calm - N/A   Scattered Clouds
8:15 AM 42.4 °F - 32.0 °F 67% 29.90 in 10.0 mi Calm Calm - N/A   Clear
8:35 AM 43.0 °F - 32.2 °F 66% 29.90 in 10.0 mi Calm Calm - N/A   Scattered Clouds
8:55 AM 43.7 °F 39.7 °F 32.5 °F 65% 29.90 in 10.0 mi South 6.9 mph - N/A   Scattered Clouds
9:15 AM 44.8 °F 43.3 °F 32.7 °F 63% 29.90 in 10.0 mi SSW 3.5 mph - N/A   Clear
9:35 AM 45.5 °F - 32.9 °F 61% 29.91 in 10.0 mi Calm Calm - N/A   Clear
9:55 AM 46.0 °F - 32.9 °F 60% 29.92 in 10.0 mi Calm Calm - N/A   Scattered Clouds
10:15 AM 47.3 °F - 33.6 °F 59% 29.92 in 10.0 mi Calm Calm - N/A   Scattered Clouds
10:35 AM 47.5 °F - 34.0 °F 59% 29.93 in 10.0 mi Calm Calm - N/A   Scattered Clouds
10:55 AM 47.8 °F - 34.0 °F 59% 29.93 in 10.0 mi Calm Calm - N/A   Clear
11:15 AM 48.4 °F - 34.2 °F 58% 29.92 in 10.0 mi Calm Calm - N/A   Scattered Clouds
11:35 AM 49.1 °F - 33.6 °F 55% 29.91 in 10.0 mi Calm Calm - N/A   Scattered Clouds
11:55 AM 49.6 °F - 32.4 °F 51% 29.90 in 10.0 mi Calm Calm - N/A   Mostly Cloudy
12:15 PM 50.2 °F - 32.0 °F 50% 29.90 in 10.0 mi Calm Calm - N/A   Mostly Cloudy
12:35 PM 50.5 °F - 31.3 °F 48% 29.90 in 10.0 mi Calm Calm - N/A   Overcast
12:55 PM 50.2 °F - 30.0 °F 46% 29.91 in 10.0 mi NNW 8.1 mph - N/A   Overcast
1:15 PM 50.4 °F - 30.4 °F 46% 29.90 in 10.0 mi Calm Calm - N/A   Overcast
1:35 PM 50.2 °F - 30.0 °F 46% 29.89 in 10.0 mi North 10.4 mph - N/A   Overcast
1:55 PM 49.8 °F - 31.5 °F 49% 29.87 in 10.0 mi NNE 17.3 mph - N/A Rain Light Rain
2:15 PM 49.5 °F - 32.0 °F 51% 29.87 in 10.0 mi NNE 18.4 mph - N/A   Overcast
2:35 PM 49.1 °F - 32.7 °F 53% 29.87 in 10.0 mi NNE 13.8 mph 23.0 mph N/A   Overcast
2:55 PM 49.3 °F - 32.4 °F 52% 29.88 in 10.0 mi NNE 12.7 mph 20.7 mph N/A   Overcast
3:15 PM 49.1 °F - 33.1 °F 54% 29.90 in 10.0 mi NNE 12.7 mph - N/A   Overcast
3:35 PM 48.7 °F - 32.0 °F 52% 29.89 in 10.0 mi NNE 21.9 mph - N/A   Overcast
3:55 PM 48.0 °F - 28.4 °F 47% 29.93 in 10.0 mi NE 15.0 mph 21.9 mph N/A   Overcast
4:15 PM 47.7 °F - 31.1 °F 53% 29.94 in 10.0 mi NNE 12.7 mph 18.4 mph N/A   Overcast
4:35 PM 47.3 °F - 32.0 °F 55% 29.95 in 10.0 mi North 10.4 mph - N/A   Overcast
4:55 PM 46.8 °F - 32.0 °F 57% 29.94 in 10.0 mi NNE 10.4 mph - N/A   Overcast
5:15 PM 46.4 °F 41.1 °F 31.8 °F 57% 29.94 in 10.0 mi NNE 11.5 mph - N/A   Overcast
5:35 PM 46.4 °F 41.5 °F 31.8 °F 57% 29.94 in 10.0 mi NNE 10.4 mph - N/A   Overcast
5:55 PM 46.4 °F 41.5 °F 31.5 °F 56% 29.94 in 10.0 mi NNE 10.4 mph - N/A   Overcast
6:15 PM 46.0 °F 41.0 °F 31.8 °F 58% 29.94 in 10.0 mi NNE 10.4 mph - N/A   Overcast
6:35 PM 45.9 °F 40.8 °F 32.0 °F 58% 29.95 in 10.0 mi NNE 10.4 mph - N/A   Overcast
6:55 PM 45.9 °F 40.4 °F 31.1 °F 56% 29.95 in 10.0 mi NNE 11.5 mph - N/A   Overcast
7:15 PM 45.7 °F 41.5 °F 31.1 °F 57% 29.95 in 10.0 mi NNE 8.1 mph - N/A   Overcast
7:35 PM 45.5 °F 40.3 °F 30.7 °F 56% 29.96 in 10.0 mi NNE 10.4 mph - N/A   Overcast
7:55 PM 45.5 °F 40.3 °F 30.4 °F 56% 29.96 in 10.0 mi NNE 10.4 mph - N/A   Overcast
8:35 PM 45.1 °F 39.9 °F 30.9 °F 58% 29.97 in 10.0 mi NNE 10.4 mph - N/A   Overcast
8:55 PM 45.0 °F 39.7 °F 31.1 °F 58% 29.97 in 10.0 mi NNE 10.4 mph - N/A   Overcast
9:15 PM 44.6 °F 40.2 °F 31.5 °F 60% 29.98 in 10.0 mi NNE 8.1 mph - N/A   Overcast
9:35 PM 44.4 °F - 31.6 °F 61% 29.98 in 10.0 mi Calm Calm - N/A   Overcast
9:55 PM 44.2 °F 39.7 °F 31.6 °F 61% 29.98 in 10.0 mi NNE 8.1 mph - N/A   Overcast
10:15 PM 44.1 °F 39.5 °F 31.8 °F 62% 29.99 in 10.0 mi NNE 8.1 mph - N/A   Overcast
10:35 PM 43.9 °F 38.8 °F 32.0 °F 63% 29.98 in 10.0 mi NNE 9.2 mph - N/A   Overcast
10:55 PM 43.7 °F - 32.0 °F 63% 29.98 in 10.0 mi Calm Calm - N/A   Overcast
11:15 PM 43.7 °F 39.1 °F 32.0 °F 63% 29.98 in 10.0 mi NE 8.1 mph - N/A   Overcast
11:35 PM 43.2 °F - 32.0 °F 65% 29.97 in 10.0 mi Calm Calm - N/A   Overcast
11:55 PM 42.8 °F - 32.0 °F 66% 29.98 in 10.0 mi Calm Calm - N/A   Overcast